Terug naar catalogus

ALOS-4

ActiefWetenschapSSO
NORAD 60182·PAYLOAD·🇯🇵 Japan

Gelanceerd Jul 1, 2024 vanaf Tanegashima Space Center

Loading…

Volgende Passages (komende 24 uur)

TLE

VersSource: Space-Track

Epoch: Sep 14, 2026, 21:46 UTC

1 60182U 24123A   26257.90730632  .00001089  00000-0  15262-3 0  9998
2 60182  97.9220 353.7915 0001500  98.4413 261.6968 14.79474259119142

Volg ALOS-4 in realtime met AllMySat

Download on the App Store